User: anonymous   Login
Location: Unspecified
(0.0000°N, 0.0000°E)
Time: 21:55:26
(UTC+02:00)
Language:

Ariane H10 - Orbit

View from above orbital plane
View from above orbital plane
View from above satellite
View from above satellite

Ground track
Ground track

The orbit data is extracted from the following two-line orbital elements,

1 21815U 91084C   14295.70971090  .00000123  00000-0  33310-3 0  6630
2 21815 003.8653 117.3006 7188672 008.1881 151.9792 02.31132522189897
Epoch (UTC): 22 October 2014 17:01:59
Eccentricity: 0.7188672
inclination: 3.8653°
perigee height: 415 km
apogee height: 35155 km
right ascension of ascending node: 117.3006°
argument of perigee: 8.1881°
revolutions per day: 2.31132522
mean anomaly at epoch: 151.9792°
orbit number at epoch: 18989

The dashed part of the orbit path shows where the satellite is in the earth's shadow,  

DLR